Location: Albany
(35.0170°S, 117.8920°E)
Time: 08:22:18
(UTC+08:00)

S-56A Canister/Altair - Pass Details

Date: 26 January 2021
Orbit: 632 x 2501 km, 38.9° (Epoch: 25 February)

Event Time Altitude Azimuth Distance (km) Brightness Sun altitude
Rises 21:02:43 0° 251° (WSW) 5,993 13.3 -18.7°
Reaches altitude 10° 21:08:01 10° 263° (W) 4,757 12.3 -19.5°
Maximum altitude 21:16:57 23° 307° (NW) 3,295 10.8 -20.9°
Enters shadow 21:23:48 11° 353° (N) 3,609 10.6 -21.9°
Drops below altitude 10° 21:24:02 10° 354° (N) 3,644 - -21.9°
Sets 21:27:28 0° 9° (N) 4,319 - -22.4°
